Vorticity
2 3 7 5 4 7 2 7 6 7 8 11 7 8 2 5 5 4 6 6 5 7 2 4 2 3 4 4 4 4 1 2 2
1 6 6 8 9 7 6 8 6 8 5 8 10 7 5 5 3 4 6 5 4 4 6 7 9 8 7 3 4 3 2 3 2
-12 -6 9 -0 6 11 6 4 7 9 4 3 5 10 7 5 4 4 5 5 5 5 4 5 6 7 9 16 2 3 2 4 4
-11 -3 5 4 -0 2 5 7 5 5 4 2 5 3 8 8 6 4 5 6 3 -2 -4 -0 1 2 6 8 12 6 3 4 6
16 3 -2 -3 18 -3 6 9 10 5 5 7 -4 3 4 3 2 5 6 7 6 2 2 4 2 3 2 3 6 9 8 9 7
1 9 8 52 -1 5 6 -0 6 8 3 5 3 6 8 7 5 7 3 5 6 3 2 2 2 1 3 5 3 3 5 9 8
7 8 7 8 5 4 -0 3 9 5 5 4 9 7 9 8 9 8 8 5 3 4 4 4 4 4 5 7 6 5 8 4 9
4 4 21 6 10 4 6 6 7 6 8 5 6 7 6 5 5 8 7 7 7 7 6 4 4 4 4 7 3 6 5 2 4
7 2 -1 12 5 10 5 3 4 -5 9 7 2 5 5 2 2 3 4 6 6 8 7 7 7 8 7 6 10 8 8 7 4
18 9 5 1 10 3 7 13 12 7 -5 19 -8 1 5 4 7 4 3 3 -2 4 8 9 9 8 7 8 11 9 7 13 6
14 17 10 7 4 -3 14 8 -12 33 3 -1 -11 8 7 7 13 2 3 2 3 2 10 5 5 9 9 8 9 6 2 10 -7
11 12 15 9 5 6 7 -6 -16 58 29 -1 4 1 3 8 6 -24 9 -2 12 6 5 4 7 5 6 5 8 6 3 4 10
17 15 11 17 13 7 6 14 -9 -16 8 11 -19 9 17 5 4 -4 16 20 26 8 0 12 7 3 9 5 2 7 8 4 6
13 14 15 22 18 17 16 19 10 15 -1 27 13 9 3 2 4 6 7 11 4 3 9 19 -1 8 -2 3 8 3 2 8 2
12 11 7 8 13 16 19 16 19 10 10 6 6 11 6 -2 -1 1 -1 6 -0 10 -3 37 14 20 13 15 3 10 6 2 4
9 7 8 11 14 10 5 8 13 14 16 28 10 8 16 12 10 10 6 7 15 12 3 8 4 -12 4 -5 8 6 9 2 6
5 8 10 11 11 7 10 16 17 9 6 5 4 8 14 11 6 8 5 12 9 4 0 7 6 23 19 8 26 -4 -5 4 2
5 6 7 6 8 11 12 10 8 11 20 16 10 15 10 11 17 26 24 11 1 1 5 7 4 9 -1 11 9 19 -0 21 -2
3 5 5 8 9 8 9 14 12 12 12 14 17 15 10 12 11 7 14 17 25 18 11 11 12 -2 5 14 8 18 -18 29 18
5 5 6 8 10 10 9 9 11 10 10 10 15 14 15 15 11 13 3 3 7 6 9 18 -2 -9 -12 7 31 -2 52 -8 9
Height
3142 3142 3142 3142 3142 3143 3143 3143 3143 3143 3143 3144 3144 3145 3147 3148 3149 3150 3151 3152 3153 3154 3155 3157 3159 3160 3161 3163 3164 3166 3167 3167 3168
3138 3137 3139 3139 3139 3140 3140 3140 3141 3141 3142 3143 3143 3144 3146 3147 3148 3149 3150 3151 3152 3153 3154 3155 3157 3159 3159 3161 3162 3164 3165 3166 3167
3134 3134 3135 3135 3136 3136 3137 3138 3139 3140 3141 3141 3142 3142 3143 3145 3146 3147 3148 3149 3150 3152 3153 3153 3155 3157 3157 3159 3160 3161 3163 3165 3166
3129 3130 3131 3132 3132 3133 3134 3135 3135 3137 3138 3139 3138 3141 3142 3142 3143 3144 3145 3147 3148 3150 3151 3152 3153 3154 3156 3157 3158 3159 3161 3162 3163
3123 3125 3127 3129 3126 3129 3128 3131 3132 3134 3135 3136 3136 3136 3139 3140 3140 3141 3142 3143 3145 3147 3149 3150 3151 3152 3153 3154 3155 3156 3158 3159 3160
3117 3119 3121 3118 3124 3124 3125 3126 3128 3129 3130 3132 3132 3133 3135 3136 3137 3138 3139 3141 3142 3143 3145 3146 3148 3150 3150 3152 3153 3153 3154 3156 3158
3111 3112 3115 3117 3118 3118 3119 3121 3123 3124 3125 3127 3128 3129 3130 3132 3133 3134 3135 3137 3139 3140 3141 3142 3143 3145 3147 3148 3149 3150 3151 3152 3155
3105 3107 3109 3111 3112 3113 3113 3116 3118 3120 3120 3121 3123 3124 3125 3127 3128 3129 3130 3132 3134 3135 3137 3138 3139 3140 3142 3144 3145 3147 3148 3148 3151
3099 3100 3102 3104 3105 3107 3108 3109 3112 3114 3117 3117 3118 3119 3121 3122 3122 3123 3124 3127 3128 3129 3131 3133 3134 3136 3137 3139 3142 3143 3144 3145 3146
3091 3093 3095 3098 3100 3100 3102 3103 3105 3107 3108 3109 3112 3113 3114 3115 3116 3118 3119 3121 3122 3124 3126 3127 3129 3130 3132 3134 3136 3138 3140 3141 3141
3085 3086 3088 3091 3093 3095 3096 3097 3098 3099 3101 3101 3101 3104 3105 3105 3105 3110 3112 3115 3116 3117 3119 3122 3123 3125 3127 3129 3131 3133 3134 3136 3137
3080 3081 3081 3083 3086 3088 3090 3090 3091 3089 3093 3093 3095 3099 3101 3101 3101 3102 3106 3105 3108 3111 3115 3116 3118 3120 3120 3122 3124 3126 3128 3130 3132
3076 3077 3077 3078 3079 3080 3081 3083 3085 3086 3084 3084 3083 3089 3093 3094 3096 3095 3094 3098 3103 3103 3106 3110 3111 3113 3115 3116 3118 3120 3121 3123 3125
3073 3073 3073 3073 3073 3073 3074 3074 3075 3077 3080 3081 3084 3086 3085 3086 3088 3089 3090 3092 3095 3096 3097 3098 3102 3106 3108 3110 3111 3112 3114 3117 3119
3070 3069 3068 3068 3068 3068 3067 3067 3067 3069 3070 3071 3073 3076 3076 3077 3078 3080 3083 3084 3087 3089 3090 3092 3094 3097 3099 3101 3103 3105 3106 3108 3112
3069 3067 3066 3065 3063 3062 3062 3061 3061 3061 3060 3062 3063 3063 3066 3068 3069 3071 3073 3076 3078 3080 3082 3083 3086 3086 3088 3091 3093 3096 3099 3099 3102
3065 3064 3062 3060 3059 3057 3056 3055 3054 3053 3051 3052 3053 3053 3057 3058 3059 3062 3064 3066 3069 3071 3072 3074 3075 3077 3078 3080 3082 3084 3087 3090 3093
3062 3060 3058 3055 3053 3051 3050 3048 3047 3046 3044 3043 3044 3044 3045 3046 3050 3054 3055 3056 3056 3057 3059 3060 3062 3064 3066 3069 3070 3072 3075 3078 3082
3056 3054 3052 3049 3047 3045 3043 3041 3039 3038 3038 3036 3035 3034 3034 3036 3039 3044 3044 3045 3046 3048 3050 3051 3052 3054 3055 3056 3059 3061 3065 3068 3071
3050 3047 3046 3043 3041 3038 3036 3034 3032 3031 3030 3030 3028 3026 3025 3026 3027 3031 3033 3035 3036 3038 3039 3040 3042 3044 3045 3045 3048 3049 3054 3056 3058